TimeEST,TemperatureF,Dew PointF,Humidity,Sea Level PressureIn,VisibilityMPH,Wind Direction,Wind SpeedMPH,Gust SpeedMPH,PrecipitationIn,Events,Conditions,WindDirDegrees,DateUTC
12:54 AM,33.1,27.0,78,30.26,10.0,Calm,Calm,-,N/A,,Clear,0,2012-12-15 05:54:00
1:54 AM,34.0,28.0,79,30.25,9.0,Calm,Calm,-,N/A,,Clear,0,2012-12-15 06:54:00
2:54 AM,33.1,27.0,78,30.26,9.0,Calm,Calm,-,N/A,,Clear,0,2012-12-15 07:54:00
3:36 AM,34.0,28.0,79,30.26,2.5,NW,3.5,-,N/A,,Haze,320,2012-12-15 08:36:00
3:50 AM,33.8,28.4,81,30.25,3.0,Calm,Calm,-,N/A,,Haze,0,2012-12-15 08:50:00
3:54 AM,34.0,28.0,79,30.25,2.0,Calm,Calm,-,N/A,,Haze,0,2012-12-15 08:54:00
3:59 AM,33.1,28.0,82,30.25,1.0,Calm,Calm,-,N/A,,Haze,0,2012-12-15 08:59:00
4:02 AM,33.1,28.0,82,30.25,0.5,Calm,Calm,-,N/A,,Haze,0,2012-12-15 09:02:00
4:13 AM,32.0,28.0,85,30.25,1.0,NW,3.5,-,N/A,,Mist,320,2012-12-15 09:13:00
4:20 AM,32.0,28.0,85,30.25,0.5,NNW,3.5,-,N/A,Fog,Fog,330,2012-12-15 09:20:00
4:54 AM,33.1,28.9,85,30.25,0.2,NW,4.6,-,N/A,Fog,Fog,320,2012-12-15 09:54:00
5:14 AM,34.0,30.0,85,30.26,1.0,NNW,5.8,-,N/A,,Mist,330,2012-12-15 10:14:00
5:18 AM,34.0,30.0,85,30.26,2.5,NW,3.5,-,N/A,,Scattered Clouds,310,2012-12-15 10:18:00
5:25 AM,33.1,28.9,85,30.26,5.0,NW,5.8,-,N/A,,Partly Cloudy,310,2012-12-15 10:25:00
5:54 AM,33.1,28.9,85,30.26,5.0,NW,4.6,-,N/A,,Clear,320,2012-12-15 10:54:00
6:54 AM,34.0,30.0,85,30.27,8.0,NNE,3.5,-,N/A,,Clear,20,2012-12-15 11:54:00
7:54 AM,37.9,33.1,83,30.27,7.0,ENE,3.5,-,N/A,,Clear,60,2012-12-15 12:54:00
8:54 AM,44.1,36.0,73,30.29,10.0,Calm,Calm,-,N/A,,Clear,0,2012-12-15 13:54:00
9:54 AM,46.9,39.0,74,30.31,10.0,ESE,4.6,-,N/A,,Clear,110,2012-12-15 14:54:00
10:54 AM,50.0,39.9,68,30.30,10.0,Calm,Calm,-,N/A,,Clear,0,2012-12-15 15:54:00
11:54 AM,53.1,41.0,64,30.26,10.0,East,5.8,-,N/A,,Clear,100,2012-12-15 16:54:00
12:54 PM,53.1,37.9,57,30.24,10.0,East,4.6,-,N/A,,Clear,90,2012-12-15 17:54:00
1:54 PM,55.0,37.9,53,30.23,10.0,East,8.1,-,N/A,,Clear,80,2012-12-15 18:54:00
2:54 PM,54.0,37.0,53,30.23,10.0,East,5.8,-,N/A,,Clear,100,2012-12-15 19:54:00
3:54 PM,52.0,37.9,59,30.21,10.0,East,4.6,-,N/A,,Clear,90,2012-12-15 20:54:00
4:54 PM,46.9,37.0,68,30.21,10.0,ENE,3.5,-,N/A,,Clear,60,2012-12-15 21:54:00
5:54 PM,46.0,37.9,73,30.22,10.0,NNE,3.5,-,N/A,,Clear,20,2012-12-15 22:54:00
6:54 PM,42.1,35.1,76,30.19,10.0,East,5.8,-,N/A,,Clear,90,2012-12-15 23:54:00
7:54 PM,45.0,39.0,80,30.19,10.0,East,3.5,-,N/A,,Clear,80,2012-12-16 00:54:00
8:54 PM,44.1,37.0,76,30.17,10.0,East,5.8,-,N/A,,Clear,80,2012-12-16 01:54:00
9:54 PM,48.0,42.1,80,30.16,10.0,East,4.6,-,N/A,,Clear,90,2012-12-16 02:54:00
10:54 PM,48.0,42.1,80,30.16,9.0,ENE,6.9,-,N/A,,Partly Cloudy,70,2012-12-16 03:54:00
11:54 PM,48.0,42.1,80,30.14,10.0,ENE,6.9,-,N/A,,Overcast,70,2012-12-16 04:54:00